Regional Weather Roundup
Issued by NWS Newport/Morehead, NC

Current Version | Previous Version | Graphics & Text | Print | Product List | Glossary Off
Versions: 1 2 3 4 5 6 7 8 9 10 11 12 13 14 15 16 17 18 19 20 21 22 23 24 25 26 27 28 29 30 31 32 33 34 35 36 37 38 39 40 41 42 43 44 45 46 47 48 49 50

000
ASUS42 KMHX 061324
RWRMHX
WEATHER ROUNDUP FOR EASTERN NORTH CAROLINA
NATIONAL WEATHER SERVICE NEWPORT/MOREHEAD CITY NC
800 AM EST TUE DEC 06 2016

NOTE: "FAIR" INDICATES FEW OR NO CLOUDS BELOW 12,000 FEET
WITH NO SIGNIFICANT WEATHER AND/OR OBSTRUCTIONS TO VISIBILITY

NCZ015>017-031-032-045>047-102-103-061400-
NORTH COAST

CITY           SKY/WX    TMP DP  RH WIND       PRES   REMARKS
EDENTON        DRIZZLE   51  49  90 E8        29.96F
ELIZABETH CITY LGT RAIN  51  47  86 NE14      29.99F
KITTY HAWK     DRIZZLE   54  51  90 E9G17     29.97S
MANTEO         DRIZZLE   54  50  87 E17       29.98F

$$

NCZ045>047-081-094-103-104-061400-
CENTRAL COAST

CITY           SKY/WX    TMP DP  RH WIND       PRES   REMARKS
FRISCO         LGT RAIN  56  54  93 NE9       29.94F FOG

$$

NCZ095-097-098-100-101-061400-
SOUTHERN COAST

CITY           SKY/WX    TMP DP  RH WIND       PRES   REMARKS
BEAUFORT       LGT RAIN  55  54  96 E9        29.89F FOG
CEDAR ISLAND   NOT AVBL
JACKSONVILLE   LGT RAIN  52  51  97 E12       29.90F
PINEY ISLAND   RAIN     N/A N/A N/A E16G29    29.90
WILMINGTON     HVY RAIN  55  55 100 E12       29.87F FOG


$$

NCZ011>013-027>030-043-044-078>080-089-090>093-098-061400-
COASTAL PLAIN

CITY           SKY/WX    TMP DP  RH WIND       PRES   REMARKS
AHOSKIE        LGT RAIN  46  44  91 NE6       29.99F
CLINTON        LGT RAIN  48  48 100 NE7       29.87F
ELIZABETHTOWN  DRIZZLE   49  49 100 E6        29.85F
GOLDSBORO      CLOUDY    48  48 100 NE9       29.89F
GREENVILLE     LGT RAIN  48  48 100 E9        29.96F
HAVELOCK       LGT RAIN  53  51  93 NE12      29.92F
KENANSVILLE    LGT RAIN  48  48 100 E8        29.90F FOG
KINSTON        LGT RAIN  48  48 100 NE8       29.94S
NEW BERN       LGT RAIN  51  49  92 E8        29.92F FOG
RICHLANDS      LGT RAIN  50  49  96 N7        29.92R
ROCKY MOUNT    LGT RAIN  47  46  97 NE7       29.96F
WASHINGTON     LGT RAIN  49  47  95 NE8       29.94F
WHITEVILLE     LGT RAIN  51  49  95 NE10      29.84

$$

AMZ130-135-150-152-154-156-158-170-250-252-270-ANZ085-086-088-633-658-670-061400-
MARINE OBSERVATIONS

STATION/POSITION TIME  TEMP    WIND        PRES    WAVE   SWELL
                       AIR SEA DIR/SP/G            HT/PER HT/PER
                 (UTC) (F)     (DEG/KT/KT) (MB)    (FT/S) (FT/S)
CHESAPEAKE LIGHT NOT AVBL
64 E VA BEACH    1250   56 60   60/ 21/ 27 1015.9    6/ 8   3/ 8
DUCK             1300   54 54   60/ 22/ 27 1014.8
2 E DUCK         NOT AVBL
OREGON INLET     1300   56 56   40/ 16/ 20 1014.3
13E OREGON INLT  NOT AVBL
HATTERAS CG      1300   56 60   50/ 10/ 15 1013.2
DIAMOND BUOY     1250   66 76   90/ 19/ 23 1013.2    5/ 9   2/ 9
CAPE LOOKOUT     1300   60      50/ 19/ 21 1011.8
BEAUFORT LAB     1300   55 55   60/  8/ 12 1011.0
30 SE NEW RVR IN 1308   60 70   90/ 21/ 27 1009.9
30 SE NEW RVR IN NOT AVBL
27 SE WRIGHTSVLE 1308   67 68  100/ 21/ 27 1010.0
5 SE WRIGHTSVLE  1308   59 62   80/ 16/ 23 1010.2
225 S CAPE HAT   1250   74 74  190/ 16/ 21 1014.4    5/ 6   2/ 8
41 SE CHARLESTON 1250   74 74  200/ 14/ 17 1007.9    7/ 7   3/10

$$



USA.gov is the U.S. government's official web portal to all federal, state and local government web resources and services.